Wind_Speed
5 6 5 2 5 7 8 6 5 3 8 11 13 12 5 6 3 8 5 5 2 6 4 10 9 12 11 1 14 26 34 32 35 35 31 29 28 27 25 25 27 25 21 20
5 7 4 5 10 12 10 5 5 4 1 3 2 0 5 6 2 3 4 2 5 1 2 5 2 9 10 2 3 8 13 38 37 35 34 32 30 28 25 28 28 23 22 19
3 5 6 5 5 4 4 5 8 5 5 6 4 5 4 5 6 4 2 2 2 4 4 3 9 6 6 4 8 5 25 21 24 30 34 33 30 28 27 25 22 18 17 16
3 4 1 7 8 5 10 6 3 8 4 6 6 3 4 5 3 3 3 3 2 3 4 7 9 7 5 6 3 7 19 17 13 22 27 30 28 23 22 22 17 15 13 12
4 3 5 8 1 3 8 3 1 8 8 8 8 5 2 5 5 5 4 3 0 3 3 4 5 7 8 5 4 9 24 27 18 13 19 27 23 22 20 16 15 13 9 7
3 3 3 5 3 13 6 2 4 7 10 11 5 2 4 8 6 7 11 6 4 3 2 3 5 1 2 5 8 11 18 19 5 6 8 21 16 16 14 13 10 9 8 6
2 3 6 5 7 1 5 7 5 6 7 8 5 6 4 8 5 10 10 11 7 7 5 2 1 7 11 10 12 10 10 14 15 13 11 13 15 14 14 14 13 11 11 10
2 2 5 4 4 5 6 3 8 6 6 9 7 5 5 6 6 3 5 8 6 6 6 2 5 10 16 14 13 17 17 19 14 14 15 15 16 15 15 16 16 15 14 15
6 6 6 4 7 6 8 8 7 7 7 8 9 8 7 5 5 6 11 11 7 6 6 4 5 9 14 11 10 14 16 19 19 19 19 17 17 18 17 16 18 16 15 16
3 5 3 3 3 7 8 7 7 7 7 9 8 5 5 4 4 5 12 13 11 8 6 4 4 5 8 11 10 13 18 18 18 18 19 18 16 15 15 14 16 15 15 14
2 4 2 4 2 3 7 6 5 7 8 7 6 3 2 2 6 10 11 11 7 7 6 5 4 6 6 7 11 16 17 16 15 16 16 16 16 15 13 11 11 11 12 11
4 6 4 4 4 0 6 10 8 8 8 7 10 9 5 3 7 11 15 9 6 6 7 7 7 4 6 6 8 13 16 16 15 15 16 16 18 19 15 13 9 8 9 4
5 6 7 4 6 4 8 8 9 12 10 10 7 9 12 10 14 15 13 12 11 8 7 6 5 4 5 6 7 10 14 16 17 16 16 17 17 20 22 17 16 16 16 16
5 6 3 4 5 8 12 14 15 13 13 15 15 10 16 11 14 17 14 12 12 13 11 9 7 6 7 7 10 12 12 12 12 14 16 16 17 18 20 21 19 16 14 14
6 4 5 8 7 6 11 14 11 10 6 3 3 4 18 16 15 16 14 14 13 14 13 12 10 7 7 7 8 10 12 13 13 14 14 14 15 15 14 16 16 15 13 12
6 9 11 11 9 8 8 8 11 13 10 8 9 14 21 22 18 15 18 17 17 16 15 13 11 11 10 8 7 9 10 10 10 12 14 14 13 13 12 12 13 14 14 13
5 4 5 5 8 8 9 2 5 3 7 8 14 18 23 20 15 18 18 17 18 18 16 15 13 11 11 9 8 12 10 9 8 7 9 12 17 19 14 15 15 13 11 10
10 8 12 12 12 8 7 8 11 4 7 17 24 23 22 21 17 20 20 19 18 16 16 16 14 12 10 9 5 5 9 12 9 9 12 13 14 13 20 21 17 15 12 9
10 8 9 14 18 14 15 14 15 10 15 21 23 20 24 26 23 23 20 18 19 19 19 15 13 12 13 11 6 2 8 8 10 10 13 13 12 10 10 19 22 19 16 13
6 13 18 18 19 17 10 14 24 14 9 25 23 22 21 27 23 20 18 23 24 23 17 17 15 14 14 12 8 7 6 6 9 12 16 14 14 15 12 10 19 21 20 15
8 11 12 13 15 17 11 22 25 17 22 30 27 25 26 25 22 21 20 16 21 18 17 19 21 17 14 13 11 10 10 9 9 10 24 21 16 13 15 13 15 16 20 16
5 11 11 14 12 13 14 20 22 24 28 27 26 24 23 22 21 22 22 22 21 20 19 19 24 23 19 15 15 15 13 13 13 12 20 26 21 20 18 15 17 21 22 17
9 14 15 14 14 19 21 19 24 28 28 28 26 26 25 24 21 19 13 25 22 21 20 19 18 25 20 15 13 17 9 7 4 5 14 20 18 18 20 18 18 17 16 14
5 15 20 26 22 15 9 21 25 31 34 32 32 31 30 26 26 27 28 26 26 26 26 22 23 23 25 22 19 17 14 11 7 7 8 8 16 19 20 19 19 17 17 19
19 11 12 14 12 12 22 27 26 25 26 27 32 34 35 33 31 34 35 32 30 29 30 29 27 26 29 30 27 23 22 18 15 12 10 9 8 13 18 18 22 22 23 24
14 12 14 17 18 23 20 24 21 23 22 19 25 31 35 36 36 33 29 33 33 35 34 33 32 33 31 32 32 28 25 21 15 10 9 9 9 10 11 13 17 24 25 27
11 14 12 10 12 17 25 26 20 19 24 25 26 33 38 37 38 37 35 33 29 27 31 38 36 36 34 35 33 30 26 21 16 13 12 10 13 10 11 15 21 28 28 24
Wind_Direction
242 226 226 249 228 187 184 190 147 229 161 222 206 203 224 324 341 115 75 26 356 182 132 64 42 57 61 56 212 208 202 202 205 207 210 213 214 217 224 226 230 227 231 235
342 10 1 239 246 210 206 144 110 122 285 242 28 133 262 299 290 38 92 38 22 122 217 118 63 74 54 296 354 246 229 210 208 209 207 211 213 217 229 228 232 233 234 238
282 340 350 342 318 179 134 101 139 184 206 134 187 174 180 227 274 306 320 195 81 62 41 306 249 182 61 348 244 300 309 246 213 208 209 209 212 212 215 211 215 222 232 239
211 40 350 245 320 137 116 141 231 84 149 139 150 131 163 220 200 245 270 301 69 69 19 24 356 6 89 36 313 295 283 242 189 213 220 218 214 212 224 218 217 225 227 235
133 176 284 320 315 145 124 18 313 122 121 135 141 110 239 220 198 189 225 233 194 62 42 345 329 3 13 79 133 182 229 241 221 211 208 218 198 206 211 195 198 217 208 213
137 134 215 250 289 131 128 50 279 128 152 157 152 182 221 213 193 180 186 189 150 108 15 324 310 345 3 163 134 143 186 206 212 185 209 199 196 201 182 179 160 141 129 126
151 181 282 251 285 77 81 222 190 175 163 160 196 215 218 190 210 183 160 151 138 107 79 350 289 168 123 128 107 146 128 134 165 144 155 145 146 143 141 138 135 134 128 116
92 125 284 224 6 118 202 165 174 181 191 187 204 208 194 199 190 163 135 129 123 102 91 72 104 126 107 95 112 130 139 141 140 134 128 128 137 131 133 136 132 133 123 103
161 212 232 234 174 181 163 169 197 180 197 185 178 203 190 177 171 178 148 130 124 98 78 38 108 130 117 112 115 120 116 114 119 115 115 120 126 133 131 141 141 134 127 117
70 348 255 276 267 174 185 157 176 188 171 167 188 163 178 179 187 162 156 144 138 119 91 57 78 132 141 142 138 135 123 123 124 122 117 114 116 119 125 133 134 135 136 128
311 284 116 31 1 97 85 73 129 154 177 110 90 75 315 215 171 154 136 138 133 117 114 100 89 104 125 135 145 135 130 131 126 127 125 124 123 121 123 121 139 141 136 129
220 231 160 242 183 170 90 100 86 101 114 138 147 169 154 192 195 152 138 138 134 118 130 101 91 107 117 121 140 135 132 133 136 132 131 130 127 119 114 118 128 131 133 126
197 198 185 150 126 111 116 127 125 116 138 145 148 167 169 172 173 163 154 147 157 160 146 145 149 143 117 122 122 125 132 131 130 130 131 133 135 130 118 109 111 112 114 116
210 147 122 196 186 157 138 137 131 127 146 168 182 177 181 168 162 158 162 159 162 150 153 158 140 130 162 164 128 136 145 145 147 140 137 137 135 131 133 132 129 125 124 122
181 122 167 128 135 155 142 145 140 143 154 187 245 180 153 164 164 169 168 162 169 160 162 159 155 156 145 152 147 145 140 141 147 150 150 147 146 142 140 139 136 134 132 129
205 126 138 158 169 164 165 179 161 171 173 156 168 188 166 167 170 171 167 163 162 165 169 166 165 159 151 157 166 173 167 162 157 165 162 161 162 165 152 151 145 139 144 145
161 129 137 157 177 182 197 122 106 135 208 163 164 180 160 158 167 160 161 172 180 183 176 173 166 163 169 165 185 169 159 162 161 188 182 194 198 198 186 178 174 173 176 179
210 206 182 172 179 176 173 165 192 199 166 168 168 165 156 157 165 170 178 183 189 187 188 189 180 181 183 184 191 213 208 189 179 190 156 142 148 163 193 194 196 188 188 192
202 201 163 162 166 175 170 170 168 153 146 157 154 162 170 172 176 186 186 192 196 186 191 192 184 188 182 181 211 261 218 217 204 208 200 170 159 154 154 189 192 192 189 183
175 159 167 166 172 178 179 183 156 161 173 172 168 168 172 180 182 181 189 184 184 189 191 197 194 193 195 198 212 208 214 217 233 241 215 202 201 190 182 169 199 208 199 193
156 159 170 173 188 196 159 168 162 168 175 178 173 175 179 184 186 185 179 183 193 196 204 207 206 211 207 215 225 233 226 248 269 285 209 210 215 222 209 198 180 190 195 189
147 168 177 180 182 191 179 171 172 169 172 178 177 178 180 186 193 197 199 199 203 209 215 214 215 223 218 219 223 235 245 262 276 279 224 215 215 221 222 219 202 191 187 185
152 172 177 174 184 201 186 185 183 180 182 185 183 189 191 194 198 195 213 217 219 221 228 232 234 220 213 217 227 238 226 164 145 215 226 219 221 218 207 200 196 191 182 177
277 164 177 195 194 164 161 186 186 187 192 193 196 199 198 199 202 212 224 223 222 224 229 237 223 216 216 217 220 210 201 202 185 154 161 193 214 207 204 202 198 199 182 163
353 253 186 161 170 186 184 184 183 191 195 195 201 206 207 208 205 214 221 223 225 224 229 233 224 218 214 217 208 208 208 206 204 211 215 210 216 223 222 213 203 196 183 174
340 319 236 196 189 195 185 180 184 192 194 197 205 208 211 213 218 223 227 230 230 230 226 229 222 215 218 217 212 210 211 211 212 210 211 208 215 217 217 221 199 190 183 172
328 324 275 222 214 198 196 185 185 194 198 202 210 215 217 219 225 230 234 234 230 232 228 227 222 216 219 217 213 212 210 213 213 208 205 217 209 214 210 202 179 172 166 165
Height
790 788 782 781 782 786 797 799 809 801 806 796 789 783 779 779 775 781 787 786 784 788 789 789 790 788 785 789 793 796 797 800 802 803 807 811 815 819 822 825 828 830 832 832
795 781 778 782 773 774 780 788 795 798 799 786 791 786 786 784 781 781 785 788 785 785 786 787 792 788 784 787 792 798 801 798 798 800 802 805 808 813 817 820 824 827 829 830
806 794 785 795 770 767 774 780 788 799 786 788 794 787 788 788 785 782 783 785 787 787 786 787 787 786 785 788 788 790 799 801 798 797 798 800 804 807 812 815 820 823 824 826
812 801 818 782 761 750 767 774 772 782 782 787 789 788 786 785 783 782 782 783 783 783 784 786 789 788 779 781 781 791 790 800 792 794 796 797 801 804 809 812 816 818 820 821
813 822 802 776 765 768 772 785 772 783 785 786 790 789 788 782 779 779 778 778 778 778 779 782 785 786 784 781 785 783 786 794 790 790 789 795 795 800 806 808 810 814 816 818
814 809 815 787 763 758 765 806 773 775 783 786 788 799 789 781 777 776 774 774 774 775 777 779 779 783 784 787 787 784 786 781 787 786 786 792 791 797 800 804 808 814 816 818
808 808 799 768 759 750 793 804 774 774 780 788 792 784 775 776 777 777 778 774 773 772 774 778 779 780 785 786 785 786 786 782 787 789 787 786 795 799 803 805 808 814 816 817
806 803 806 756 759 777 778 770 770 772 774 780 780 780 777 776 780 782 782 779 779 779 775 777 778 779 780 784 786 786 786 788 785 792 791 793 796 801 804 808 810 815 817 817
789 792 765 754 756 753 759 765 768 768 769 772 776 778 779 782 781 779 781 784 784 784 781 781 779 779 781 785 786 788 790 789 789 793 795 798 802 806 807 810 813 816 818 818
773 765 759 755 750 750 752 755 760 762 765 770 774 779 782 785 785 784 784 785 787 788 786 788 785 783 785 784 786 789 791 793 793 794 794 796 801 807 812 816 817 817 818 819
778 766 761 757 755 754 756 756 758 762 764 773 779 782 784 786 784 785 785 787 788 788 791 792 789 787 788 788 788 788 790 793 795 797 798 802 803 808 813 816 818 818 818 818
782 762 762 761 756 755 758 765 766 764 770 772 772 774 777 784 787 785 786 787 789 789 790 791 792 791 791 790 790 790 790 793 798 799 801 804 806 809 813 816 818 819 819 819
758 750 751 751 755 757 762 764 763 763 765 766 771 772 773 777 782 784 785 787 790 792 792 792 794 796 796 794 793 792 795 797 799 803 803 804 809 809 808 817 818 819 820 822
744 744 753 754 757 755 756 761 762 762 761 762 762 767 771 773 779 782 786 787 791 792 794 795 796 797 798 799 796 797 802 803 803 803 806 808 811 813 816 815 817 820 822 821
737 739 742 748 753 755 756 759 761 762 762 762 762 765 765 773 776 779 784 787 791 792 795 795 796 797 799 800 800 800 804 805 807 807 809 811 814 815 817 818 819 820 821 822
734 741 745 748 752 753 756 757 757 758 758 760 762 767 766 771 776 779 782 785 789 792 794 795 797 797 800 803 803 803 804 805 805 809 811 810 811 815 817 820 820 821 821 824
736 748 749 751 753 753 753 756 757 757 757 757 761 767 768 772 776 778 781 785 790 793 794 795 797 799 800 804 806 807 806 807 806 810 810 810 811 813 817 819 822 823 823 824
725 725 729 733 742 748 751 753 752 751 750 752 760 766 768 771 775 778 782 787 792 793 793 796 795 798 800 803 805 807 807 808 806 809 811 810 809 811 814 816 820 820 823 824
718 720 724 730 736 740 743 745 745 748 751 755 759 763 767 770 774 779 781 785 788 791 792 792 794 797 798 801 804 805 805 806 808 810 812 810 809 811 812 813 816 818 822 824
714 717 720 726 731 734 738 742 741 746 751 756 760 765 768 771 774 777 780 782 785 786 788 791 794 796 798 801 803 805 805 805 807 808 809 808 809 810 811 812 813 816 820 822
713 716 719 722 727 730 734 737 737 742 747 752 756 760 763 767 771 773 777 780 782 785 787 789 792 794 796 798 800 801 802 803 803 803 804 805 807 809 809 810 811 814 817 819
711 715 719 721 724 726 731 736 738 742 746 751 753 757 760 764 767 770 773 775 779 782 784 787 789 790 793 795 796 797 800 802 801 801 800 802 805 807 808 809 810 811 813 816
709 712 716 720 723 724 729 733 736 739 745 748 750 754 757 760 763 767 769 770 774 777 780 781 783 786 789 792 793 794 797 797 796 796 797 800 802 804 805 807 808 811 814 815
711 710 713 715 718 723 729 732 735 737 740 743 747 750 754 757 760 762 764 768 771 774 775 777 779 782 785 788 790 791 792 794 795 796 797 798 800 801 801 803 805 808 810 811
714 711 710 713 717 720 721 726 731 736 738 741 744 747 750 753 755 756 759 762 765 769 771 772 775 779 782 784 786 787 788 790 792 793 794 796 797 797 799 800 802 804 806 809
714 714 711 709 710 713 718 723 727 731 735 739 741 743 746 749 751 753 754 756 758 760 763 765 769 773 774 777 780 782 783 786 788 789 790 792 793 794 795 797 798 802 805 808
710 711 710 710 710 712 714 718 722 726 729 732 735 736 739 742 744 746 748 750 752 752 753 755 759 763 766 769 773 775 778 780 783 785 787 788 789 790 791 793 795 800 804 808